Preview of NWS' New Version of Forecast
This preview is not operational and should not be used for support decisions.

Regional Weather Roundup (RWR)

Issued by National Weather Service (NWS)

                            
000
ASUS45 KBOU 191710
RWRCO 

WEATHER ROUNDUP FOR COLORADO
NATIONAL WEATHER SERVICE DENVER/BOULDER CO
1100 AM MDT SUN MAY 19 2019

NOTE: "FAIR" INDICATES FEW OR NO CLOUDS BELOW 12000 FEET WITH NO
SIGNIFICANT WEATHER AND/OR OBSTRUCTIONS TO VISIBILITY.

COZ001>005-013-030-031-191800-
...NORTHWEST COLORADO...
  
CITY           SKY/WX    TMP DP  RH WIND       PRES   REMARKS
CRAIG          PTSUNNY   56  32  40 E8        29.84F                  
HAYDEN         PTSUNNY   52  29  41 NE8       29.87F                  
MEEKER         CLOUDY    54  26  34 SW10      29.84F                  
RANGELY        CLOUDY    55  33  42 CALM      29.79F                  
RABBIT EARS PA NOT AVBL                                               
STEAMBOAT SPGS CLOUDY    51  30  45 E3        29.86F                  
WALDEN         FAIR      50  21  32 S13       29.92F                  
$$

COZ006>008-011-191800-
...WEST CENTRAL VALLEYS...
  
CITY           SKY/WX    TMP DP  RH WIND       PRES   REMARKS
GRAND JUNCTION FAIR      58  33  39 E15G26    29.78F                  
MONTROSE       PTSUNNY   56  34  43 E10G20    29.85F                  
EAGLE          PTSUNNY   48  28  46 S5        29.92F                  
RIFLE          FAIR      53  34  48 N7        29.84F                  
DELTA          PTSUNNY   59  36  42 E9        29.84F                  
NUCLA          CLOUDY    57  23  26 S24G35    29.88F                  
$$

COZ017>023-064>068-191800-
...SOUTHWEST COLORADO...
  
CITY           SKY/WX    TMP DP  RH WIND       PRES   REMARKS
DURANGO        PTSUNNY   49  31  49 SE13G20   29.99F                  
CORTEZ         PTSUNNY   57  29  34 SE9       29.89F                  
PAGOSA SPRINGS CLOUDY    47  26  45 S12G20    30.07S                  
TELLURIDE      CLOUDY    43  23  45 S13G21    29.99S                  
WOLF CREEK PAS SNOW      25  23  93 S35G47    30.12F VSB 1/2 WCI   7  
$$

COZ009-010-012-014-032>034-037-058>063-191800-
...CENTRAL COLORADO...
  
CITY           SKY/WX    TMP DP  RH WIND       PRES   REMARKS
ASPEN          PTSUNNY   50  25  37 S12G23    29.93S                  
BUENA VISTA    PTSUNNY   51  22  31 SE23      29.97F                  
COPPER MTN     CLOUDY    34  21  60 S17       30.06F WCI  23          
BERTHOUD PASS  CLOUDY    28  18  64 SW13G26   30.07S WCI  18          
COTTONWOOD PAS PTSUNNY   45  23  42 E5        30.03S                  
GUNNISON       FAIR      41  29  62 NE5       29.99F                  
GRANBY         PTSUNNY   47  27  45 N5        29.95F                  
KREMMLING      PTSUNNY   48  28  46 CALM      29.92F                  
LEADVILLE      FAIR      39  23  52 S13       29.99F                  
MONARCH PASS   CLOUDY    28  23  80 SW33      30.18F WCI  12          
SALIDA         FAIR      55  22  28 S13G25    30.04F                  
SUNLIGHT       CLOUDY    34  23  64 S3        30.04S                  
WILKERSON PASS PTSUNNY   36  18  48 SW6       30.09F                  
$$

COZ069>075-191800-
...SAN LUIS VALLEY/SANGRE DE CRISTO MOUNTAINS...
  
CITY           SKY/WX    TMP DP  RH WIND       PRES   REMARKS
ALAMOSA        FAIR      52  23  32 SE10      30.01F                  
DEL NORTE      FAIR      47  27  45 E9        30.03F                  
LA VETA PASS   NOT AVBL                                               
SAGUACHE       FAIR      45  28  53 CALM      30.03F                  
$$

COZ035-036-038>040-191800-
...NORTHERN COLORADO FRONT RANGE...
  
CITY           SKY/WX    TMP DP  RH WIND       PRES   REMARKS
DENVER INTL AP PTSUNNY   48  34  58 VRB5      29.98R                  
AURORA         PTSUNNY   47  37  70 E6        29.98S                  
FRONT RANGE AP PTSUNNY   48  34  57 E5        30.00R                  
ERIE MUNI ARPT CLOUDY    43  32  67 NE5       30.05S                  
BOULDER MUN AP CLOUDY    41  34  75 E5        29.99S                  
CENTENNIAL     PTSUNNY   49  38  65 N5        29.97S                  
BROOMFIELD     CLOUDY    41  34  75 E5        29.99S                  
FORT COLLINS   CLOUDY    41  32  70 VRB6      30.01S                  
LONGMONT       CLOUDY    45  34  65 SE6       30.02S                  
$$

COZ041-046-047-076>085-087-088-191800-
...PIKES PEAK/PALMER DIVIDE AND SOUTHERN FOOTHILLS...
  
CITY           SKY/WX    TMP DP  RH WIND       PRES   REMARKS
COLO. SPRINGS  PTSUNNY   48  35  60 S15       29.99F                  
A. F. ACADEMY  CLOUDY    50  35  56 S13G18    29.96F                  
SCHRIEVER AFB  NOT AVBL                                               
CHEYENNE MTN   NOT AVBL                                               
ELLICOTT         N/A    N/A N/A N/A SW12      29.98F                  
FALCON         FAIR      48  33  55 SE15G24   30.01F                  
FORT CARSON    FAIR      52  36  54 S18G25    29.96R                  
LIMON          PTSUNNY   47  38  71 CALM      30.00F                  
MONUMENT HILL  FAIR      48  32  53 S10G17    29.99F                  
CANON CITY     FAIR      55  36  47 SE7       29.97S                  
WALSENBURG     NOT AVBL                                               
TRINIDAD       FAIR      59  31  34 SE5       29.97F                  
$$

COZ042>045-048>051-090-091-191800-
...NORTHEAST COLORADO...
  
CITY           SKY/WX    TMP DP  RH WIND       PRES   REMARKS
GREELEY ARPT   CLOUDY    43  31  62 E6        30.01F                  
AKRON          FAIR      48  32  53 N12       29.99F                  
BURLINGTON     FAIR      57  34  41 N14G23    29.99F                  
WRAY           FAIR      54  32  43 N15       30.01F                  
YUMA           FAIR      46  30  53 NW9G17    30.01F                  
STERLING       FAIR      48  32  53 N7        30.00F                  
HOLYOKE        FAIR      54  34  47 NW15G24   30.02R                  
FORT MORGAN      N/A     49  29  45 N9        30.00F                  
$$

COZ086-089-092>099-191800-
...SOUTHEAST COLORADO...
  
CITY           SKY/WX    TMP DP  RH WIND       PRES   REMARKS
PUEBLO         FAIR      53  37  54 MISG      29.98F                  
LA JUNTA       FAIR      55  34  45 SE10G20   30.00F                  
LAMAR          FAIR      56  35  45 CALM      30.00S                  
SPRINGFIELD      N/A     57  38  48 SE6       30.01F                  
$$